EWG7N EGHQ-EDDL

Flight info

Callsign EWG7N
Flight time 1h 16m
Altitude 37000
Route DAWLY DCT GIBSO L620 SAM M140 DVR UL9 KONAN DCT KOK DCT SPI Y862 KENUM M170 NVO T857 BIKMU BIKMU1A
Aircraft A319/M-SDE3FGHIRWY/LB1

Departure

Time 2026-05-05 18:14
Airport Cornwall Airport Newquay (EGHQ)

Arrival

Time 2026-05-05 19:30
Airport Düsseldorf Airport (EDDL)
Time Latitude Longitude Altitude Speed Heading
2026-05-05 17:49 50.44684 -5.00442 336 ft 0 kts 91°
2026-05-05 18:01 50.44684 -5.00451 336 ft 4 kts 86°
2026-05-05 18:01 50.44678 -5.00490 329 ft 4 kts 77°
2026-05-05 18:01 50.44672 -5.00531 327 ft 4 kts 74°
2026-05-05 18:01 50.44668 -5.00552 325 ft 1 kts 73°
2026-05-05 18:06 50.44668 -5.00544 325 ft 3 kts 87°
2026-05-05 18:06 50.44637 -5.00473 329 ft 9 kts 129°
2026-05-05 18:06 50.44603 -5.00391 333 ft 9 kts 118°
2026-05-05 18:07 50.44563 -5.00283 333 ft 16 kts 121°
2026-05-05 18:07 50.44507 -5.00134 346 ft 16 kts 121°
2026-05-05 18:07 50.44450 -4.99983 344 ft 17 kts 121°
2026-05-05 18:07 50.44389 -4.99823 346 ft 17 kts 120°
2026-05-05 18:08 50.44331 -4.99666 358 ft 16 kts 120°
2026-05-05 18:08 50.44274 -4.99514 356 ft 19 kts 120°
2026-05-05 18:08 50.44198 -4.99312 360 ft 23 kts 121°
2026-05-05 18:08 50.44115 -4.99095 361 ft 23 kts 120°
2026-05-05 18:09 50.44034 -4.98879 371 ft 22 kts 120°
2026-05-05 18:09 50.43958 -4.98678 376 ft 20 kts 120°
2026-05-05 18:09 50.43888 -4.98490 380 ft 20 kts 121°
2026-05-05 18:09 50.43824 -4.98323 383 ft 20 kts 121°
2026-05-05 18:10 50.43754 -4.98136 387 ft 20 kts 120°
2026-05-05 18:10 50.43685 -4.97956 392 ft 19 kts 126°
2026-05-05 18:10 50.43583 -4.97854 390 ft 14 kts 165°
2026-05-05 18:10 50.43543 -4.97848 395 ft 0 kts 179°
2026-05-05 18:12 50.43518 -4.97853 395 ft 6 kts 191°
2026-05-05 18:12 50.43475 -4.97894 393 ft 9 kts 239°
2026-05-05 18:12 50.43495 -4.97984 393 ft 0 kts 300°
2026-05-05 18:13 50.43498 -4.97993 392 ft 6 kts 300°
2026-05-05 18:13 50.43618 -4.98314 378 ft 66 kts 300°
2026-05-05 18:13 50.43953 -4.99203 353 ft 124 kts 301°
2026-05-05 18:14 50.44467 -5.00545 592 ft 149 kts 305°
2026-05-05 18:14 50.45004 -5.01927 1306 ft 148 kts 306°
2026-05-05 18:14 50.45561 -5.03339 1831 ft 161 kts 307°
2026-05-05 18:14 50.46328 -5.04735 2187 ft 179 kts 334°
2026-05-05 18:15 50.47615 -5.04874 2519 ft 204 kts 18°
2026-05-05 18:15 50.48757 -5.03357 3021 ft 236 kts 58°
2026-05-05 18:15 50.49254 -5.00795 3837 ft 254 kts 77°
2026-05-05 18:15 50.49418 -4.98139 4783 ft 262 kts 84°
2026-05-05 18:16 50.49482 -4.95250 5803 ft 267 kts 84°
2026-05-05 18:16 50.49572 -4.92284 6688 ft 276 kts 84°
2026-05-05 18:16 50.49698 -4.89282 7589 ft 281 kts 83°
2026-05-05 18:16 50.49851 -4.86197 8520 ft 285 kts 83°
2026-05-05 18:17 50.50020 -4.83073 9464 ft 289 kts 83°
2026-05-05 18:17 50.50202 -4.79900 10322 ft 296 kts 83°
2026-05-05 18:17 50.50403 -4.76547 10664 ft 319 kts 83°
2026-05-05 18:17 50.50621 -4.72999 11251 ft 330 kts 83°
2026-05-05 18:18 50.50841 -4.69371 12010 ft 336 kts 83°
2026-05-05 18:18 50.51060 -4.65696 12798 ft 340 kts 84°
2026-05-05 18:18 50.51276 -4.62017 13558 ft 345 kts 84°
2026-05-05 18:18 50.51497 -4.58200 14304 ft 348 kts 84°
2026-05-05 18:19 50.51718 -4.54389 15000 ft 352 kts 84°
2026-05-05 18:19 50.51938 -4.50543 15668 ft 356 kts 84°
2026-05-05 18:19 50.52158 -4.46644 16370 ft 359 kts 84°
2026-05-05 18:19 50.52378 -4.42766 17048 ft 363 kts 83°
2026-05-05 18:20 50.52603 -4.38793 17720 ft 367 kts 83°
2026-05-05 18:20 50.52830 -4.34772 18398 ft 370 kts 83°
2026-05-05 18:20 50.53059 -4.30719 18836 ft 375 kts 83°
2026-05-05 18:20 50.53289 -4.26625 18961 ft 376 kts 83°
2026-05-05 18:21 50.53514 -4.22525 18994 ft 376 kts 83°
2026-05-05 18:21 50.53735 -4.18436 18994 ft 377 kts 83°
2026-05-05 18:21 50.53957 -4.14332 19021 ft 377 kts 84°
2026-05-05 18:21 50.54178 -4.10215 19552 ft 379 kts 84°
2026-05-05 18:22 50.54399 -4.06054 20093 ft 384 kts 84°
2026-05-05 18:22 50.54621 -4.01854 20671 ft 387 kts 84°
2026-05-05 18:22 50.54844 -3.97603 21210 ft 392 kts 84°
2026-05-05 18:22 50.55066 -3.93352 21728 ft 397 kts 84°
2026-05-05 18:23 50.55294 -3.89006 22298 ft 400 kts 85°
2026-05-05 18:23 50.55524 -3.84620 22849 ft 405 kts 85°
2026-05-05 18:23 50.55753 -3.80200 23407 ft 408 kts 85°
2026-05-05 18:23 50.55983 -3.75718 23910 ft 412 kts 85°
2026-05-05 18:24 50.56210 -3.71220 24376 ft 415 kts 85°
2026-05-05 18:24 50.56436 -3.66688 24896 ft 416 kts 85°
2026-05-05 18:24 50.56663 -3.62140 25394 ft 418 kts 85°
2026-05-05 18:24 50.56889 -3.57559 25875 ft 420 kts 86°
2026-05-05 18:25 50.57111 -3.52962 26333 ft 423 kts 86°
2026-05-05 18:25 50.57186 -3.51406 26488 ft 424 kts 86°
2026-05-05 18:25 50.57922 -3.43753 27227 ft 429 kts 74°
2026-05-05 18:25 50.58789 -3.39238 27674 ft 432 kts 73°
2026-05-05 18:26 50.59658 -3.34701 28127 ft 435 kts 73°
2026-05-05 18:26 50.60526 -3.30129 28565 ft 438 kts 74°
2026-05-05 18:26 50.61102 -3.27075 28827 ft 441 kts 74°
2026-05-05 18:26 50.61977 -3.22416 29244 ft 444 kts 74°
2026-05-05 18:27 50.63137 -3.16209 29814 ft 447 kts 74°
2026-05-05 18:27 50.64005 -3.11489 30202 ft 450 kts 76°
2026-05-05 18:27 50.64470 -3.08238 30448 ft 451 kts 79°
2026-05-05 18:27 50.65091 -3.03391 30816 ft 453 kts 80°
2026-05-05 18:28 50.66236 -2.93597 31553 ft 456 kts 81°
2026-05-05 18:28 50.66788 -2.88685 31997 ft 455 kts 81°
2026-05-05 18:28 50.67340 -2.83781 32523 ft 452 kts 81°
2026-05-05 18:29 50.67891 -2.78921 33035 ft 450 kts 81°
2026-05-05 18:29 50.68446 -2.74081 33622 ft 446 kts 81°
2026-05-05 18:29 50.69001 -2.69282 34163 ft 443 kts 81°
2026-05-05 18:29 50.69552 -2.64512 34579 ft 442 kts 81°
2026-05-05 18:30 50.70102 -2.59737 34934 ft 442 kts 81°
2026-05-05 18:30 50.70649 -2.54961 35246 ft 443 kts 81°
2026-05-05 18:30 50.71193 -2.50185 35572 ft 443 kts 81°
2026-05-05 18:30 50.71727 -2.45482 35861 ft 444 kts 81°
2026-05-05 18:31 50.72277 -2.40630 36172 ft 444 kts 81°
2026-05-05 18:31 50.72809 -2.35903 36451 ft 445 kts 81°
2026-05-05 18:31 50.73347 -2.31072 36740 ft 445 kts 81°
2026-05-05 18:31 50.73882 -2.26249 36924 ft 447 kts 81°
2026-05-05 18:32 50.74948 -2.16589 36956 ft 446 kts 81°
2026-05-05 18:32 50.76006 -2.06940 36941 ft 446 kts 81°
2026-05-05 18:33 50.77055 -1.97286 36941 ft 446 kts 81°
2026-05-05 18:33 50.78100 -1.87614 36949 ft 446 kts 82°
2026-05-05 18:34 50.79136 -1.77969 36951 ft 445 kts 81°
2026-05-05 18:34 50.80165 -1.68321 36952 ft 444 kts 82°
2026-05-05 18:35 50.81180 -1.58688 36949 ft 444 kts 82°
2026-05-05 18:35 50.82186 -1.49053 36948 ft 444 kts 82°
2026-05-05 18:36 50.83186 -1.39416 36946 ft 444 kts 82°
2026-05-05 18:36 50.84174 -1.29782 36959 ft 443 kts 82°
2026-05-05 18:37 50.85144 -1.20158 36956 ft 443 kts 82°
2026-05-05 18:37 50.86101 -1.10594 36959 ft 442 kts 82°
2026-05-05 18:38 50.87073 -1.00977 36957 ft 442 kts 82°
2026-05-05 18:38 50.88033 -0.91359 36939 ft 442 kts 82°
2026-05-05 18:39 50.88979 -0.81717 36942 ft 443 kts 82°
2026-05-05 18:39 50.89917 -0.72078 36945 ft 443 kts 83°
2026-05-05 18:40 50.90850 -0.62445 36947 ft 443 kts 83°
2026-05-05 18:40 50.91776 -0.52809 36962 ft 442 kts 83°
2026-05-05 18:41 50.92697 -0.43165 36952 ft 442 kts 83°
2026-05-05 18:41 50.93608 -0.33520 36955 ft 442 kts 83°
2026-05-05 18:42 50.94499 -0.23943 36952 ft 442 kts 83°
2026-05-05 18:42 50.95390 -0.14294 36949 ft 442 kts 83°
2026-05-05 18:43 50.96280 -0.04650 36943 ft 442 kts 83°
2026-05-05 18:43 50.97154 0.04989 36968 ft 442 kts 83°
2026-05-05 18:44 50.98018 0.14632 37010 ft 442 kts 83°
2026-05-05 18:44 50.98876 0.24295 37052 ft 441 kts 83°
2026-05-05 18:45 50.99729 0.33949 37065 ft 441 kts 83°
2026-05-05 18:45 51.00570 0.43596 37075 ft 441 kts 83°
2026-05-05 18:46 51.01400 0.53234 37069 ft 441 kts 84°
2026-05-05 18:46 51.02225 0.62882 37057 ft 441 kts 84°
2026-05-05 18:47 51.03035 0.72458 37022 ft 440 kts 84°
2026-05-05 18:47 51.03845 0.82107 36993 ft 440 kts 84°
2026-05-05 18:48 51.04658 0.91761 36945 ft 440 kts 84°
2026-05-05 18:48 51.05455 1.01403 36943 ft 440 kts 84°
2026-05-05 18:49 51.06233 1.11038 36938 ft 439 kts 84°
2026-05-05 18:49 51.06998 1.20675 36938 ft 439 kts 85°
2026-05-05 18:50 51.07760 1.30229 36938 ft 438 kts 84°
2026-05-05 18:50 51.08526 1.39849 36920 ft 438 kts 84°
2026-05-05 18:51 51.09276 1.49462 36909 ft 438 kts 85°
2026-05-05 18:51 51.10016 1.59094 36906 ft 438 kts 85°
2026-05-05 18:52 51.10750 1.68730 36904 ft 439 kts 85°
2026-05-05 18:52 51.11479 1.78369 36903 ft 439 kts 85°
2026-05-05 18:53 51.12204 1.88020 36904 ft 439 kts 85°
2026-05-05 18:53 51.12907 1.97666 36894 ft 439 kts 87°
2026-05-05 18:54 51.12702 2.07257 36901 ft 436 kts 97°
2026-05-05 18:54 51.12173 2.16877 36898 ft 436 kts 98°
2026-05-05 18:55 51.11646 2.26507 36899 ft 437 kts 97°
2026-05-05 18:55 51.11123 2.36152 36898 ft 437 kts 97°
2026-05-05 18:56 51.10590 2.45786 36893 ft 437 kts 97°
2026-05-05 18:56 51.10041 2.55419 36894 ft 437 kts 98°
2026-05-05 18:57 51.09417 2.64963 36894 ft 435 kts 103°
2026-05-05 18:57 51.07846 2.74215 36894 ft 433 kts 109°
2026-05-05 18:58 51.06178 2.83400 36907 ft 433 kts 109°
2026-05-05 18:58 51.04494 2.92597 36904 ft 433 kts 109°
2026-05-05 18:59 51.02808 3.01783 36907 ft 432 kts 109°
2026-05-05 18:59 51.01120 3.10940 36899 ft 432 kts 109°
2026-05-05 19:00 50.99432 3.20089 36893 ft 432 kts 109°
2026-05-05 19:00 50.97733 3.29214 36879 ft 431 kts 109°
2026-05-05 19:01 50.96028 3.38336 36873 ft 431 kts 109°
2026-05-05 19:01 50.94315 3.47450 36864 ft 431 kts 109°
2026-05-05 19:02 50.92602 3.56541 36865 ft 431 kts 109°
2026-05-05 19:02 50.90885 3.65581 36867 ft 431 kts 109°
2026-05-05 19:03 50.89147 3.74661 36868 ft 431 kts 109°
2026-05-05 19:03 50.87400 3.83730 36866 ft 431 kts 109°
2026-05-05 19:04 50.85658 3.92804 36867 ft 431 kts 109°
2026-05-05 19:04 50.83903 4.01882 36876 ft 430 kts 110°
2026-05-05 19:05 50.82174 4.10794 36532 ft 431 kts 110°
2026-05-05 19:05 50.81294 4.15325 36113 ft 429 kts 110°
2026-05-05 19:05 50.80434 4.19735 35689 ft 426 kts 110°
2026-05-05 19:06 50.79557 4.24208 35265 ft 423 kts 110°
2026-05-05 19:06 50.78690 4.28624 34823 ft 420 kts 110°
2026-05-05 19:06 50.77836 4.32963 34392 ft 416 kts 110°
2026-05-05 19:06 50.76978 4.37312 33950 ft 413 kts 110°
2026-05-05 19:07 50.76132 4.41586 33466 ft 410 kts 110°
2026-05-05 19:07 50.75562 4.44474 33172 ft 407 kts 110°
2026-05-05 19:07 50.74451 4.50084 32587 ft 401 kts 110°
2026-05-05 19:07 50.73622 4.54264 32165 ft 396 kts 110°
2026-05-05 19:08 50.72801 4.58386 31743 ft 392 kts 110°
2026-05-05 19:08 50.71984 4.62467 31325 ft 388 kts 110°
2026-05-05 19:08 50.71180 4.66474 30923 ft 384 kts 109°
2026-05-05 19:08 50.70374 4.70474 30516 ft 380 kts 109°
2026-05-05 19:09 50.69577 4.74421 30127 ft 376 kts 109°
2026-05-05 19:09 50.68788 4.78336 29725 ft 373 kts 109°
2026-05-05 19:09 50.68009 4.82194 29330 ft 369 kts 109°
2026-05-05 19:09 50.67233 4.86027 28967 ft 365 kts 109°
2026-05-05 19:10 50.66469 4.89802 28620 ft 361 kts 109°
2026-05-05 19:10 50.65707 4.93562 28268 ft 358 kts 109°
2026-05-05 19:10 50.64951 4.97274 27920 ft 354 kts 109°
2026-05-05 19:10 50.64203 5.00941 27584 ft 350 kts 109°
2026-05-05 19:11 50.63461 5.04570 27229 ft 346 kts 109°
2026-05-05 19:11 50.62748 5.08057 26885 ft 343 kts 109°
2026-05-05 19:11 50.62121 5.11115 26594 ft 340 kts 110°
2026-05-05 19:11 50.61396 5.14627 26244 ft 336 kts 109°
2026-05-05 19:12 50.60675 5.18123 25884 ft 333 kts 109°
2026-05-05 19:12 50.59965 5.21577 25531 ft 331 kts 109°
2026-05-05 19:12 50.59259 5.25010 25179 ft 329 kts 109°
2026-05-05 19:12 50.58556 5.28426 24816 ft 327 kts 109°
2026-05-05 19:13 50.58088 5.30689 24571 ft 327 kts 109°
2026-05-05 19:13 50.57386 5.34072 24209 ft 326 kts 109°
2026-05-05 19:13 50.56454 5.38556 23716 ft 325 kts 109°
2026-05-05 19:13 50.55979 5.40839 23461 ft 324 kts 110°
2026-05-05 19:14 50.55049 5.45295 22921 ft 322 kts 110°
2026-05-05 19:14 50.54577 5.47553 22670 ft 321 kts 110°
2026-05-05 19:14 50.53880 5.50876 22304 ft 320 kts 110°
2026-05-05 19:14 50.53192 5.54157 21937 ft 319 kts 110°
2026-05-05 19:15 50.52534 5.57479 21557 ft 318 kts 104°
2026-05-05 19:15 50.52277 5.60916 21200 ft 318 kts 91°
2026-05-05 19:15 50.52528 5.64370 20816 ft 319 kts 77°
2026-05-05 19:15 50.53274 5.67640 20432 ft 321 kts 64°
2026-05-05 19:16 50.54294 5.70621 20059 ft 322 kts 63°
2026-05-05 19:16 50.55358 5.73735 19667 ft 324 kts 63°
2026-05-05 19:16 50.56424 5.76881 19262 ft 327 kts 63°
2026-05-05 19:16 50.57497 5.80057 18865 ft 330 kts 63°
2026-05-05 19:17 50.58577 5.83253 18460 ft 333 kts 63°
2026-05-05 19:17 50.59669 5.86485 18048 ft 335 kts 63°
2026-05-05 19:17 50.60766 5.89736 17606 ft 336 kts 63°
2026-05-05 19:17 50.61861 5.92988 17188 ft 337 kts 63°
2026-05-05 19:18 50.62945 5.96207 16793 ft 337 kts 63°
2026-05-05 19:18 50.64056 5.99503 16382 ft 337 kts 63°
2026-05-05 19:18 50.65151 6.02766 15974 ft 336 kts 63°
2026-05-05 19:18 50.66230 6.05984 15584 ft 336 kts 63°
2026-05-05 19:19 50.67323 6.09242 15183 ft 335 kts 64°
2026-05-05 19:19 50.68406 6.12475 14806 ft 333 kts 64°
2026-05-05 19:19 50.69479 6.15689 14419 ft 330 kts 64°
2026-05-05 19:19 50.70563 6.18924 14021 ft 327 kts 64°
2026-05-05 19:20 50.71663 6.22016 13466 ft 331 kts 56°
2026-05-05 19:20 50.73309 6.24530 12943 ft 325 kts 36°
2026-05-05 19:20 50.75114 6.26550 12828 ft 314 kts 36°
2026-05-05 19:20 50.76877 6.28558 12849 ft 311 kts 37°
2026-05-05 19:21 50.78651 6.30516 12845 ft 311 kts 30°
2026-05-05 19:21 50.80667 6.31754 12861 ft 312 kts 17°
2026-05-05 19:21 50.82744 6.32755 12856 ft 312 kts 17°
2026-05-05 19:21 50.84824 6.33753 12859 ft 312 kts 17°
2026-05-05 19:22 50.86899 6.34748 12805 ft 311 kts 17°
2026-05-05 19:22 50.88965 6.35739 12415 ft 310 kts 17°
2026-05-05 19:22 50.91052 6.36740 11634 ft 315 kts 17°
2026-05-05 19:22 50.93154 6.37750 10882 ft 316 kts 17°
2026-05-05 19:23 50.95257 6.38766 10144 ft 315 kts 17°
2026-05-05 19:23 50.97351 6.39778 9387 ft 314 kts 16°
2026-05-05 19:23 50.99395 6.40764 8845 ft 304 kts 17°
2026-05-05 19:23 51.01359 6.41713 8538 ft 290 kts 17°
2026-05-05 19:24 51.03278 6.42642 8242 ft 286 kts 17°
2026-05-05 19:24 51.05163 6.43556 7948 ft 284 kts 17°
2026-05-05 19:24 51.07088 6.44490 7116 ft 295 kts 17°
2026-05-05 19:24 51.09056 6.45446 6214 ft 301 kts 17°
2026-05-05 19:25 51.11075 6.46430 5249 ft 305 kts 17°
2026-05-05 19:25 51.13100 6.47416 4429 ft 302 kts 17°
2026-05-05 19:25 51.14929 6.48784 4208 ft 279 kts 36°
2026-05-05 19:25 51.16287 6.50843 3984 ft 264 kts 52°
2026-05-05 19:26 51.17380 6.53116 3652 ft 252 kts 52°
2026-05-05 19:26 51.18408 6.55261 3331 ft 241 kts 52°
2026-05-05 19:26 51.19390 6.57304 3017 ft 231 kts 53°
2026-05-05 19:26 51.20353 6.59307 2709 ft 218 kts 52°
2026-05-05 19:27 51.21243 6.61161 2429 ft 206 kts 52°
2026-05-05 19:27 51.22093 6.62934 2155 ft 195 kts 52°
2026-05-05 19:27 51.22889 6.64594 1931 ft 181 kts 52°
2026-05-05 19:27 51.23622 6.66125 1667 ft 167 kts 51°
2026-05-05 19:28 51.24292 6.67525 1446 ft 149 kts 50°
2026-05-05 19:28 51.24872 6.68739 1258 ft 130 kts 51°
2026-05-05 19:28 51.25403 6.69848 1078 ft 123 kts 50°
2026-05-05 19:28 51.25922 6.70931 888 ft 122 kts 50°
2026-05-05 19:29 51.26434 6.72002 738 ft 121 kts 48°
2026-05-05 19:29 51.26949 6.73078 573 ft 122 kts 49°
2026-05-05 19:29 51.27461 6.74149 399 ft 121 kts 49°
2026-05-05 19:29 51.27971 6.75218 231 ft 121 kts 49°
2026-05-05 19:30 51.28449 6.76227 132 ft 105 kts 50°
2026-05-05 19:30 51.28796 6.76950 128 ft 57 kts 53°
2026-05-05 19:30 51.28971 6.77317 127 ft 37 kts 52°
2026-05-05 19:30 51.29023 6.77503 129 ft 14 kts 93°
2026-05-05 19:31 51.28956 6.77628 128 ft 16 kts 143°
2026-05-05 19:31 51.28875 6.77610 126 ft 13 kts 238°
2026-05-05 19:31 51.28821 6.77473 129 ft 16 kts 234°
2026-05-05 19:31 51.28747 6.77318 128 ft 19 kts 232°
2026-05-05 19:32 51.28662 6.77139 127 ft 22 kts 232°
2026-05-05 19:32 51.28565 6.76935 129 ft 22 kts 232°
2026-05-05 19:32 51.28502 6.76802 127 ft 12 kts 233°
2026-05-05 19:32 51.28446 6.76781 122 ft 6 kts 146°
2026-05-05 19:33 51.28444 6.76783 123 ft 0 kts 141°
2026-05-05 19:33 51.28421 6.76810 126 ft 7 kts 145°
2026-05-05 19:33 51.28376 6.76863 125 ft 9 kts 143°
2026-05-05 19:33 51.28358 6.76961 129 ft 12 kts 57°
2026-05-05 19:34 51.28418 6.77087 129 ft 12 kts 52°
2026-05-05 19:34 51.28432 6.77130 126 ft 4 kts 92°
2026-05-05 19:34 51.28399 6.77175 127 ft 3 kts 142°
2026-05-05 19:35 51.28385 6.77193 128 ft 0 kts 142°